Location: ??????????
(54.7560°N, 39.1389°E)
Time: 06:24:21
(UTC+00:00)

USA 234 - Pass Details

Date: 19 May 2025
Orbit: 1097 x 1111 km, 123.0° (Epoch: 13 June)

Event Time Altitude Azimuth Distance (km) Brightness Sun altitude
Rises 18:58:59 0° 63° (ENE) 3,925 6.1 -9.5°
Reaches altitude 10° 19:01:31 10° 67° (ENE) 2,967 5.4 -9.7°
Maximum altitude 19:08:01 62° 148° (SSE) 1,237 3.3 -10.2°
Drops below altitude 10° 19:14:30 10° 228° (SW) 2,966 5.4 -10.6°
Sets 19:17:01 0° 232° (SW) 3,924 6.1 -10.8°
